Weather in Ulianivka

Ukraine / Sumi District     50°58′26″N   34°17′41″E
temp.,
°C
wind,
m/s
gust,
m/s
humid.,
%
clouds,
%
prec.,
mm/h
press.,
hPa
HPBL,
m
8 may, sat
sat800:00+10s61388100 1.4 1010508
03:00+10sse71485100 4.9 1008597
06:00+10sse61394100 0.9 1006535
09:00+11s61295100 8.1 1005887
12:00+11wsw5997100 5.1 1004521
15:00+10w5994100 6.4 1006494
18:00+6wnw91192100 0.2 1009945
21:00+5wnw81394100 0.4 1013906
9 may, sun
sun900:00+4wnw7139199 0.0 1014666
03:00+3nw613892 0.0 1016546
06:00+2wnw513900 0.0 1018458
09:00+7nw610683 0.0 1020995
12:00+10nw810516 0.0 10211880
15:00+11nw81046100 0.0 10222501
18:00+11nnw69565 0.0 10231687
21:00+6nw35720 0.0 102671
10 may, mon
mon1000:00+4nnw35725 0.0 102770
03:00+3nnw357610 0.0 102882
06:00+3n347848 0.0 103085
09:00+10n35600 0.0 1030421
12:00+13n46465 0.0 10291726
15:00+14n68465 0.0 10281666
18:00+13nne58590 0.0 10271327
21:00+8nne410790 0.0 1028163
11 may, tue
tue1100:00+7nne514786 0.0 1027289
03:00+6n61475100 0.0 1026349
06:00+8nne61565100 0.0 1025454
09:00+11nne713666 0.0 1024553
12:00+15ne81164100 0.0 1023921
15:00+13ene7107892 0.0 10221005
18:00+13ene61073100 0.1 10231012
21:00+11ene378216 0.1 1022260
12 may, wed
wed1200:00+9ene4119274 0.0 1022356
03:00+8ene3684100 0.1 1021186
06:00+7ene4109533 0.0 1020268
09:00+10e71174100 0.0 10191089
12:00+10e81181100 0.1 10191156
15:00+10ese81479100 0.2 10181314
18:00+10ese61087100 0.1 10181213
21:00+9e51089100 0.3 1017525